{"data":{"norad_id":66289,"epoch":"2026-05-25T03:20:35.882880Z","epoch_age_seconds":67012,"freshness":"FRESH","line1":"1 66289U 25247AA  26145.13930420  .00009397  00000+0  28884-3 0  9991","line2":"2 66289  53.1588 195.2597 0001313 105.0514 255.0634 15.34407137 32752","mean_motion":15.34407137,"eccentricity":0.0001313,"inclination_deg":53.1588,"raan_deg":195.2597,"arg_perigee_deg":105.0514,"mean_anomaly_deg":255.0634,"bstar":0.00028884,"rev_number":3275,"period_min":93.847321566519,"perigee_km":461.78382808295,"apogee_km":463.5802271596,"semimajor_km":6840.8190276213,"source":"CELESTRAK","updated_at":"2026-05-25T13:38:21.165297Z"}}